Regional Weather Roundup
Issued by NWS Green Bay, WI

Home | Current Version | Previous Version | Text Only | Print | Product List | Glossary On
Versions: 1 2 3 4 5 6 7 8 9 10 11 12 13 14 15 16 17 18 19 20 21 22 23 24 25 26 27 28 29 30 31 32 33 34 35 36 37 38 39 40 41 42 43 44 45 46 47 48 49 50
000
ASUS43 KGRB 282010
RWRGRB

NORTH-CENTRAL AND NORTHEAST WISCONSIN REGIONAL WEATHER ROUNDUP
NATIONAL WEATHER SERVICE GREEN BAY WI
300 PM CDT THU AUG 28 2014

WIZ005-009-010>012-018-019-282100-
NORTH CENTRAL WISCONSIN

CITY           SKY/WX    TMP DP  RH WIND       PRES   REMARKS
IRONWOOD       NOT AVBL
MANITOWISH WTR MOSUNNY   70  52  52 S6        30.09F
ARBOR VITAE    MOSUNNY   72  54  52 S6        30.09F
EAGLE RIVER    PTSUNNY   71  49  45 E5        30.09F
LAND O LAKES   MOSUNNY   72  47  41 S3        30.10F
RHINELANDER    PTSUNNY   69  54  58 S8        30.11F
PHILLIPS       CLOUDY    69  57  65 S7        30.08F
ANTIGO         PTSUNNY   67  57  70 SE6       30.10F
TOMAHAWK       PTSUNNY   69  56  64 S3        30.10F
MERRILL        PTSUNNY   69  59  69 S7        30.10F
$$

WIZ013-073-282100-
NORTHEAST WISCONSIN

CITY           SKY/WX    TMP DP  RH WIND       PRES   REMARKS
IRON MOUNTAIN  MOSUNNY   72  51  47 S8        30.10F
MARINETTE      CLOUDY    66  55  68 SE12      30.11F
OCONTO         CLOUDY    67  58  72 S6        30.11F
$$

WIZ017-030-035>037-045-282100-
CENTRAL WISCONSIN

CITY           SKY/WX    TMP DP  RH WIND       PRES   REMARKS
MEDFORD        CLOUDY    66  59  78 SE3       30.09F
WAUSAU         PTSUNNY   70  59  68 VRB3      30.08F
MOSINEE        CLOUDY    70  63  78 E5        30.10F
MARSHFIELD     CLOUDY    70  62  76 SE5       30.08F
WISC RAPIDS    CLOUDY    74  60  61 VRB7      30.09F
STEVENS POINT  CLOUDY    68  60  74 SE6       30.10S
WAUPACA        CLOUDY    73  61  65 E8        30.10S
SHAWANO        CLOUDY    73  60  65 SE5       30.10F
CLINTONVILLE   CLOUDY    72  59  64 SE7       30.10F
$$

WIZ038-039-048-051-282100-
FOX VALLEY

CITY           SKY/WX    TMP DP  RH WIND       PRES   REMARKS
NWS GREEN BAY  CLOUDY    71  60  68 SE7       30.11F
APPLETON       CLOUDY    70  57  64 SE9       30.12F
OSHKOSH        CLOUDY    71  59  65 SE9       30.10F
FOND DU LAC    CLOUDY    71  57  61 MISG      30.11F
$$

WIZ022-050-052-282100-
EAST CENTRAL WISCONSIN

CITY           SKY/WX    TMP DP  RH WIND       PRES   REMARKS
STURGEON BAY   PTSUNNY   66  55  68 SE12      30.14F
MANITOWOC      CLOUDY    67  55  65 SE14      30.14F
SHEBOYGAN      CLOUDY    67  52  58 SE10      30.14F
$$

LMZ563-521-522-541>543-282100-
LAKESHORE

STATION/POSITION TIME  TEMP    WIND        PRES    VSBY  WAVE
                       AIR SEA DIR/SP/G                  HT/PER
                 (UTC) (F)     (DEG/KT/KT) (MB)    (MI)  (FT/S)
SHEBOYGAN LKSHOR 2000   65 69  160/ 10/ 11 1020.6F
KEWAUNEE LKSHORE 2000   65     160/ 12/ 14 1019.5F
NORTHPORT PIER   2000   65     160/  9/ 15 1020.7F
N MID LAKE BUOY  2000   63 66  160/  6/  8 1021.3F         0
S GREEN BAY BUOY 2000   68     VRB  6/  8  1020.6F
SISTER BAY LKSHO 1900   68     150/ 12/ 15   N/A
CHAMBERS ISLAND  2000   65     130/  6/ 10 1020.3F
MENOMINEE LKSHOR 2000   65     140/ 11/ 13 1020.5F
$$


USA.gov is the U.S. government's official web portal to all federal, state and local government web resources and services.